sat.trackr.live / text

‹ back to catalog

ERNST

NORAD 60528 · 2024-149BN

PAYLOAD ACTIVE UNKNOWN

§ Identity

Operator
Country
GER
Launch date
2024-08-16
Launch site
AFWTR
Launch vehicle
Mass (kg)
RCS (m²)

External: N2YO · Heavens-Above · Gunter

§ Orbital elements

Epoch: 2026-09-22T17:49:54.742944Z

Period
93.42 min
Inclination
97.3767°
Eccentricity
0.0004417
Mean motion
15.41444304 rev/d
Perigee alt
438.8 km
Apogee alt
444.9 km
Semi-major
6,820.0 km
B*
2.4312e-4
RAAN
350.3247°
Arg perigee
311.1508°
Mean anomaly
48.9357°
Rev number
11,729

§ Raw data

ERNST1 60528U 24149BN  26265.74299471  .00010092  00000+0  24312-3 0  99912 60528  97.3767 350.3247 0004417 311.1508  48.9357 15.41444304117297

JSON: /api/v1/satellites/60528 · /tle

For live sub-satellite position, see the globe view (requires WebGL).

§ Visibility from observer

Set your observer location to see the next 7 days of passes ≥ 10°. The values pass through the URL so the page stays shareable.

No JS? Fill the form by hand. The geolocation button needs JavaScript.

§ Radio — SatNOGS DB

ModeDescriptionDownlinkUplink
FSK AX.100 Mode 5 Mode U - FSK4k8 - Transmitter 401.100 MHz
FM Mode X - Transmitter 8.356 GHz

2 transmitters · refreshed weekly from db.satnogs.org